KHALIFASAT

Satellite information

Favourite Embed

Satellite Type and Status

PAYLOADIN ORBIT

Key statistics

Satellite KHALIFASAT at a glance.

Uptime

2557

Days in orbit

Revolutions

≈ 15.0

Per day

Orbit

SSO

Sun Synchronous Orbit

Inclination

98.1

Latest

Satellite identification and parameters

Extended collection of information and parameters for KHALIFASAT.

Object identification

Identified? True

Debris? False

Object name: KHALIFASAT

International designator: 2018-084F

Object number (NORAD): 43676

Object ID (CCSDS): 43676

Country: UNITED ARAB EMIRATES (UAE)

Current information (Y/N): Y

RCS size: LARGE

Orbital parameters

Period: 95.997 minutes

Inclination: 98.1003 deg

SMA: 6944.894 km

Apoapsis: 572.817 km

Periapsis: 560.7 km

RAAN: 109.1166 deg

Eccentricy: 0.00087235

Argument of periapsis: 159.998 deg

Mean anomaly: 200.1586 deg

Mean motion: 15.0004522 rev/day

Mean motion (dot): 0.00003452 rev/day2

B* drag term: 0.00028224378 1/REarth

Two-line elements (TLE)

Creation date: Oct. 28, 2025, 2:18 a.m.

Reference frame: TEME

Reference center: EARTH

Epoch: Oct. 27, 2025, 11:21 p.m. UTC

TLE line 0: 0 KHALIFASAT

TLE line 1: 1 43676U 18084F 25300.97335943 .00003452 00000-0 28224-3 0 9995

TLE line 2: 2 43676 98.1003 109.1166 0008724 159.9980 200.1586 15.00045220380940

Live tracking on map

Real-time ground track for satellite KHALIFASAT.

In-orbit conjunctions

There are no conjunctions computed for KHALIFASAT, at the moment. Check back to stay up to date, as we update our databases every day.

Go to all conjunctions

Associated space launch

KhalifaSat is an Earth observation satellite for UAE. KhalifaSat will provide high-resolution imagery of Earth to be used for various purposes, including urban planning, change monitoring, area classification, monitoring environmental change and aiding relief efforts for natural disasters. GOSAT 2 (Greenhouse gases Observing SATellite 2) is a Japanese satellite dedicated to greenhouse gas measurement from space. It's a follow on to the GOSAT mission and includes such improvements as an ability to gather more precise data and monitor carbon monoxide concentrations.

KHALIFASAT was lifted into orbit during the mission ‘H-IIA 202 | KhalifaSat & GOSAT-2’, on board a H-IIA space rocket.

The launch took place on Oct. 29, 2018, 4:08 a.m. from Yoshinobu Launch Complex LP-1.

For more information about the launch, click the button.

Launch to space H-IIA 202 | KhalifaSat & GOSAT-2
H-IIA 202 | KhalifaSat & GOSAT-2

Agency: N/A

Status: Launch Successful

Launch date: Oct. 29, 2018, 4:08 a.m. UTC

Rocket: H-IIA

Launch pad: Yoshinobu Launch Complex LP-1

Location: Tanegashima Space Center, Japan

...

Latest news about this satellite

News about space launch
Japan Launches UAE's KhalifaSat and Climate-Monitoring Satellite Into Orbit


Newsletter sign-up

Weekly statistics, charts and insights to help you stay on top of the space industry.